H1 CPF 2 NER 2020 11 24 9 329 01 glonass133 H2 1403201 9133 40001 2020 11 24 0 0 0 2020 11 27 23 45 0 900 1 1 0 0 0 1 H9 10 0 59177 0.00000 0 -329968.700 -12899769.297 -22005077.327 10 0 59177 900.00000 0 1541548.159 -14766179.933 -20747396.778 10 0 59177 1800.00000 0 3144085.117 -16637438.193 -19086971.317 10 0 59177 2700.00000 0 4457034.840 -18448593.099 -17056125.111 10 0 59177 3600.00000 0 5472782.938 -20133758.997 -14694346.714 10 0 59177 4500.00000 0 6196762.553 -21628819.728 -12047519.933 10 0 59177 5400.00000 0 6646960.605 -22874076.381 -9167032.575 10 0 59177 6300.00000 0 6852898.024 -23816728.301 -6108780.138 10 0 59177 7200.00000 0 6854128.249 -24413083.961 -2932083.694 10 0 59177 8100.00000 0 6698318.348 -24630409.523 301457.287 10 0 59177 9000.00000 0 6438994.416 -24448338.032 3529155.186 10 0 59177 9900.00000 0 6133046.783 -23859780.387 6688444.561 10 0 59177 10800.00000 0 5838100.533 -22871300.025 9718089.425 10 0 59177 11700.00000 0 5609862.324 -21502935.508 12559364.373 10 0 59177 12600.00000 0 5499555.375 -19787478.153 15157186.969 10 0 59177 13500.00000 0 5551550.718 -17769234.372 17461179.978 10 0 59177 14400.00000 0 5801294.574 -15502323.691 19426643.357 10 0 59177 15300.00000 0 6273619.297 -13048582.583 21015417.699 10 0 59177 16200.00000 0 6981509.456 -10475160.411 22196622.914 10 0 59177 17100.00000 0 7925375.675 -7851906.393 22947258.267 10 0 59177 18000.00000 0 9092867.850 -5248655.199 23252652.309 10 0 59177 18900.00000 0 10459237.025 -2732522.888 23106753.994 10 0 59177 19800.00000 0 11988232.431 -365324.553 22512259.011 10 0 59177 20700.00000 0 13633497.861 1798779.699 21480568.270 10 0 59177 21600.00000 0 15340410.686 3715313.165 20031578.498 10 0 59177 22500.00000 0 17048288.048 5351101.364 18193307.920 10 0 59177 23400.00000 0 18692869.023 6685413.895 16001363.174 10 0 59177 24300.00000 0 20208969.518 7710581.849 13498256.678 10 0 59177 25200.00000 0 21533198.835 8432065.057 10732586.729 10 0 59177 26100.00000 0 22606623.569 8867966.470 7758095.639 10 0 59177 27000.00000 0 23377266.241 9048014.470 4632623.904 10 0 59177 27900.00000 0 23802332.506 9012056.507 1416980.776 10 0 59177 28800.00000 0 23850071.892 8808128.400 -1826246.147 10 0 59177 29700.00000 0 23501192.435 8490181.981 -5033918.371 10 0 59177 30600.00000 0 22749768.364 8115568.481 -8143585.975 10 0 59177 31500.00000 0 21603601.634 7742385.600 -11094713.684 10 0 59177 32400.00000 0 20084021.455 7426802.088 -13829868.484 10 0 59177 33300.00000 0 18225129.881 7220474.511 -16295844.652 10 0 59177 34200.00000 0 16072525.237 7168166.732 -18444703.448 10 0 59177 35100.00000 0 13681557.204 7305673.745 -20234706.871 10 0 59177 36000.00000 0 11115187.042 7658138.245 -21631127.277 10 0 59177 36900.00000 0 8441542.967 8238831.297 -22606917.419 10 0 59177 37800.00000 0 5731273.018 9048448.566 -23143228.505 10 0 59177 38700.00000 0 3054805.872 10074951.662 -23229767.088 10 0 59177 39600.00000 0 479633.499 11293960.934 -22864984.724 10 0 59177 40500.00000 0 -1932271.908 12669683.016 -22056097.680 10 0 59177 41400.00000 0 -4126800.353 14156333.939 -20818937.136 10 0 59177 42300.00000 0 -6059709.621 15699997.981 -19177633.412 10 0 59177 43200.00000 0 -7698212.312 17240844.358 -17164140.856 10 0 59177 44100.00000 0 -9022080.106 18715608.977 -14817612.804 10 0 59177 45000.00000 0 -10024221.095 20060237.475 -12183638.867 10 0 59177 45900.00000 0 -10710708.124 21212579.091 -9313359.286 10 0 59177 46800.00000 0 -11100258.797 22115018.806 -6262473.337 10 0 59177 47700.00000 0 -11223190.575 22716937.708 -3090160.906 10 0 59177 48600.00000 0 -11119896.261 22976898.709 142062.057 10 0 59177 49500.00000 0 -10838905.052 22864466.159 3371532.267 10 0 59177 50400.00000 0 -10434611.482 22361583.123 6535649.081 10 0 59177 51300.00000 0 -9964768.435 21463448.542 9573082.535 10 0 59177 52200.00000 0 -9487850.026 20178857.260 12424956.364 10 0 59177 53100.00000 0 -9060395.513 18529988.282 15035983.334 10 0 59177 54000.00000 0 -8734446.044 16551649.448 17355531.413 10 0 59177 54900.00000 0 -8555182.061 14290009.199 19338600.639 10 0 59177 55800.00000 0 -8558860.763 11800867.346 20946692.240 10 0 59177 56700.00000 0 -8771140.496 9147535.648 22148553.727 10 0 59177 57600.00000 0 -9205862.876 6398415.090 22920785.951 10 0 59177 58500.00000 0 -9864344.469 3624369.290 23248300.532 10 0 59177 59400.00000 0 -10735208.721 896001.868 23124618.849 10 0 59177 60300.00000 0 -11794766.483 -1719050.386 22552006.481 10 0 59177 61200.00000 0 -13007930.604 -4158697.010 21541439.885 10 0 59177 62100.00000 0 -14329627.766 -6368739.650 20112405.173 10 0 59177 63000.00000 0 -15706649.858 -8304887.135 18292531.756 10 0 59177 63900.00000 0 -17079868.390 -9934356.127 16117066.910 10 0 59177 64800.00000 0 -18386719.945 -11236990.818 13628200.291 10 0 59177 65700.00000 0 -19563858.670 -12205854.923 10874250.533 10 0 59177 66600.00000 0 -20549864.207 -12847271.209 7908729.106 10 0 59177 67500.00000 0 -21287890.570 -13180307.145 4789299.234 10 0 59177 68400.00000 0 -21728143.450 -13235728.666 1576650.196 10 0 59177 69300.00000 0 -21830080.216 -13054466.760 -1666690.556 10 0 59177 70200.00000 0 -21564238.486 -12685662.514 -4877583.518 10 0 59177 71100.00000 0 -20913614.662 -12184374.377 -7993516.577 10 0 59177 72000.00000 0 -19874533.066 -11609045.931 -10953832.307 10 0 59177 72900.00000 0 -18456968.019 -11018842.735 -13700918.053 10 0 59177 73800.00000 0 -16684304.551 -10470972.318 -16181334.610 10 0 59177 74700.00000 0 -14592547.512 -10018101.909 -18346860.623 10 0 59177 75600.00000 0 -12229012.153 -9705984.048 -20155432.047 10 0 59177 76500.00000 0 -9650551.185 -9571391.026 -21571958.292 10 0 59177 77400.00000 0 -6921392.770 -9640445.614 -22568999.484 10 0 59177 78300.00000 0 -4110679.917 -9927418.407 -23127292.313 10 0 59177 79200.00000 0 -1289813.930 -10434042.147 -23236115.071 10 0 59177 80100.00000 0 1470287.591 -11149371.342 -22893485.717 10 0 59177 81000.00000 0 4101904.618 -12050192.532 -22106190.036 10 0 59177 81900.00000 0 6543088.473 -13101967.400 -20889640.189 10 0 59177 82800.00000 0 8739989.574 -14260268.617 -19267567.039 10 0 59177 83700.00000 0 10648843.842 -15472647.832 -17271552.715 10 0 59177 84600.00000 0 12237536.813 -16680857.223 -14940412.688 10 0 59177 85500.00000 0 13486682.034 -17823331.304 -12319439.518 10 0 59178 0.00000 0 14390170.701 -18837824.933 -9459522.915 10 0 59178 900.00000 0 14955171.294 -19664096.774 -6416162.630 10 0 59178 1800.00000 0 15201581.291 -20246526.321 -3248394.180 10 0 59178 2700.00000 0 15160954.674 -20536553.555 -17646.750 10 0 59178 3600.00000 0 14874952.434 -20494840.354 3213443.889 10 0 59178 4500.00000 0 14393381.374 -20093061.803 6382244.899 10 0 59178 5400.00000 0 13771904.688 -19315252.615 9427335.110 10 0 59178 6300.00000 0 13069520.890 -18158651.703 12289689.858 10 0 59178 7200.00000 0 12345917.319 -16634009.033 14913819.220 10 0 59178 8100.00000 0 11658809.493 -14765341.162 17248838.102 10 0 59178 9000.00000 0 11061378.056 -12589144.668 19249447.949 10 0 59178 9900.00000 0 10599910.882 -10153099.186 20876811.557 10 0 59178 10800.00000 0 10311749.262 -7514312.710 22099304.575 10 0 59178 11700.00000 0 10223624.474 -4737180.704 22893129.589 10 0 59178 12600.00000 0 10350454.793 -1890946.574 23242781.084 10 0 59178 13500.00000 0 10694653.951 952936.692 23141352.325 10 0 59178 14400.00000 0 11245980.852 3723535.554 22590677.928 10 0 59178 15300.00000 0 11981937.864 6353143.457 21601308.790 10 0 59178 16200.00000 0 12868702.171 8779855.358 20192319.051 10 0 59178 17100.00000 0 13862552.347 10949902.959 18390947.753 10 0 59178 18000.00000 0 14911731.305 12819653.743 16232081.059 10 0 59178 18900.00000 0 15958668.270 14357190.714 13757583.935 10 0 59178 19800.00000 0 16942466.801 15543406.895 11015493.257 10 0 59178 20700.00000 0 17801554.201 16372568.663 8059087.382 10 0 59178 21600.00000 0 18476380.280 16852324.387 4945849.854 10 0 59178 22500.00000 0 18912050.814 17003158.119 1736347.444 10 0 59178 23400.00000 0 19060783.377 16857311.743 -1506955.140 10 0 59178 24300.00000 0 18884080.410 16457221.680 -4720920.001 10 0 59178 25200.00000 0 18354526.269 15853537.106 -7842975.366 10 0 59178 26100.00000 0 17457130.876 15102804.572 -10812344.049 10 0 59178 27000.00000 0 16190162.033 14264918.218 -13571235.941 10 0 59178 27900.00000 0 14565430.214 13400444.699 -16065980.291 10 0 59178 28800.00000 0 12608013.179 12567937.152 -18248074.833 10 0 59178 29700.00000 0 10355431.527 11821352.624 -20075130.936 10 0 59178 30600.00000 0 7856309.562 11207682.714 -21511696.319 10 0 59178 31500.00000 0 5168577.600 10764897.607 -22529939.554 10 0 59178 32400.00000 0 2357290.851 10520290.104 -23110183.687 10 0 59178 33300.00000 0 -507844.152 10489288.875 -23241279.432 10 0 59178 34200.00000 0 -3355132.600 10674790.204 -22920811.570 10 0 59178 35100.00000 0 -6113633.557 11067035.409 -22155135.508 10 0 59178 36000.00000 0 -8715867.847 11644038.191 -20959244.126 10 0 59178 36900.00000 0 -11100380.019 12372543.058 -19356468.162 10 0 59178 37800.00000 0 -13214049.109 13209473.834 -17378016.442 10 0 59178 38700.00000 0 -15014053.592 14103810.819 -15062365.120 10 0 59178 39600.00000 0 -16469410.212 14998817.348 -12454507.918 10 0 59178 40500.00000 0 -17562024.310 15834521.978 -9605081.827 10 0 59178 41400.00000 0 -18287209.513 16550351.884 -6569385.069 10 0 59178 42300.00000 0 -18653656.609 17087806.768 -3406306.263 10 0 59178 43200.00000 0 -18682854.448 17393060.884 -177185.308 10 0 59178 44100.00000 0 -18407988.366 17419383.801 3055372.141 10 0 59178 45000.00000 0 -17872363.381 17129278.068 6228703.715 10 0 59178 45900.00000 0 -17127419.119 16496243.794 9281299.753 10 0 59178 46800.00000 0 -16230420.313 15506095.668 12153989.919 10 0 59178 47700.00000 0 -15241920.164 14157776.658 14791084.310 10 0 59178 48600.00000 0 -14223103.078 12463633.495 17141447.404 10 0 59178 49500.00000 0 -13233118.242 10449141.366 19159484.568 10 0 59178 50400.00000 0 -12326515.656 8152088.112 20806022.490 10 0 59178 51300.00000 0 -11550891.946 5621250.467 22049067.032 10 0 59178 52200.00000 0 -10944844.399 2914615.831 22864424.296 10 0 59178 53100.00000 0 -10536318.953 97221.932 23236173.044 10 0 59178 54000.00000 0 -10341421.441 -2761297.586 23156979.445 10 0 59178 54900.00000 0 -10363742.290 -5589361.309 22628247.730 10 0 59178 55800.00000 0 -10594223.557 -8316173.297 21660103.341 10 0 59178 56700.00000 0 -11011574.637 -10874429.081 20271208.051 10 0 59178 57600.00000 0 -11583220.106 -13202882.782 18488409.632 10 0 59178 58500.00000 0 -12266740.743 -15248668.978 16346231.739 10 0 59178 59400.00000 0 -13011747.911 -16969282.798 13886212.782 10 0 59178 60300.00000 0 -13762112.907 -18334135.603 11156105.603 10 0 59178 61200.00000 0 -14458457.469 -19325620.946 8208952.805 10 0 59178 62100.00000 0 -15040800.149 -19939646.003 5102055.340 10 0 59178 63000.00000 0 -15451246.096 -20185606.070 1895854.327 10 0 59178 63900.00000 0 -15636605.543 -20085803.252 -1347251.558 10 0 59178 64800.00000 0 -15550828.933 -19674334.241 -4564129.407 10 0 59178 65700.00000 0 -15157154.179 -18995494.723 -7692151.235 10 0 59178 66600.00000 0 -14429873.750 -18101768.718 -10670423.530 10 0 59178 67500.00000 0 -13355645.445 -17051488.890 -13440982.104 10 0 59178 68400.00000 0 -11934290.242 -15906267.900 -15949927.882 10 0 59178 69300.00000 0 -10179042.628 -14728310.437 -18148480.659 10 0 59178 70200.00000 0 -8116242.151 -13577720.424 -19993929.838 10 0 59178 71100.00000 0 -5784478.641 -12509917.640 -21450463.607 10 0 59178 72000.00000 0 -3233226.763 -11573273.011 -22489860.608 10 0 59178 72900.00000 0 -521026.867 -10807062.032 -23092031.293 10 0 59178 73800.00000 0 2286712.052 -10239821.896 -23245399.241 10 0 59178 74700.00000 0 5120195.765 -9888180.622 -22947115.934 10 0 59178 75600.00000 0 7907911.555 -9756206.207 -22203105.772 10 0 59178 76500.00000 0 10579367.909 -9835301.971 -21027941.262 10 0 59178 77400.00000 0 13067793.913 -10104651.191 -19444551.516 10 0 59178 78300.00000 0 15312687.136 -10532191.204 -17483770.186 10 0 59178 79200.00000 0 17262105.245 -11076075.028 -15183731.869 10 0 59178 80100.00000 0 18874607.220 -11686558.280 -12589128.847 10 0 59178 81000.00000 0 20120764.816 -12308231.466 -9750342.517 10 0 59178 81900.00000 0 20984182.698 -12882503.364 -6722466.201 10 0 59178 82800.00000 0 21461986.038 -13350230.768 -3564238.179 10 0 59178 83700.00000 0 21564756.596 -13654383.806 -336905.420 10 0 59178 84600.00000 0 21315921.144 -13742634.539 2896960.214 10 0 59178 85500.00000 0 20750618.823 -13569759.817 6074670.404 10 0 59179 0.00000 0 19914095.761 -13099757.182 9134630.287 10 0 59179 900.00000 0 18859694.723 -12307584.055 12017527.000 10 0 59179 1800.00000 0 17646524.458 -11180448.027 14667473.218 10 0 59179 2700.00000 0 16336906.603 -9718591.106 17033085.150 10 0 59179 3600.00000 0 14993706.798 -7935536.383 19068473.774 10 0 59179 4500.00000 0 13677661.798 -5857784.016 20734130.899 10 0 59179 5400.00000 0 12444814.015 -3523968.392 21997693.386 10 0 59179 6300.00000 0 11344160.490 -983509.695 22834571.202 10 0 59179 7200.00000 0 10415614.370 1705185.683 23228427.347 10 0 59179 8100.00000 0 9688363.985 4476902.898 23171500.459 10 0 59179 9000.00000 0 9179698.106 7262085.898 22664763.599 10 0 59179 9900.00000 0 8894346.801 9989493.127 21717915.618 10 0 59179 10800.00000 0 8824365.816 12588932.743 20349204.489 10 0 59179 11700.00000 0 8949569.852 14993964.655 18585085.003 10 0 59179 12600.00000 0 9238497.133 17144457.483 16459716.344 10 0 59179 13500.00000 0 9649865.246 18988894.225 14014308.188 10 0 59179 14400.00000 0 10134457.362 20486330.358 11296326.955 10 0 59179 15300.00000 0 10637359.486 21607922.194 8358576.943 10 0 59179 16200.00000 0 11100454.087 22337961.127 5258173.792 10 0 59179 17100.00000 0 11465064.178 22674370.016 2055430.168 10 0 59179 18000.00000 0 11674635.080 22628640.583 -1187324.151 10 0 59179 18900.00000 0 11677339.139 22225214.528 -4406964.081 10 0 59179 19800.00000 0 11428491.656 21500334.743 -7540808.138 10 0 59179 20700.00000 0 10892674.229 20500415.704 -10527849.022 10 0 59179 21600.00000 0 10045474.141 19280002.700 -13309950.734 10 0 59179 22500.00000 0 8874764.866 17899407.038 -15832987.878 10 0 59179 23400.00000 0 7381472.453 16422118.114 -18047904.001 10 0 59179 24300.00000 0 5579794.579 14912102.432 -19911667.973 10 0 59179 25200.00000 0 3496862.336 13431104.112 -21388109.625 10 0 59179 26100.00000 0 1171858.551 12036060.968 -22448618.610 10 0 59179 27000.00000 0 -1345370.723 10776744.770 -23072693.495 10 0 59179 27900.00000 0 -3996153.708 9693724.394 -23248331.193 10 0 59179 28800.00000 0 -6715202.851 8816736.550 -22972250.067 10 0 59179 29700.00000 0 -9433105.365 8163531.229 -22249943.346 10 0 59179 30600.00000 0 -12078991.167 7739238.856 -21095562.619 10 0 59179 31500.00000 0 -14583267.637 7536284.192 -19531634.427 10 0 59179 32400.00000 0 -16880308.308 7534848.999 -17588615.901 10 0 59179 33300.00000 0 -18910984.531 7703862.653 -15304298.389 10 0 59179 34200.00000 0 -20624935.769 8002477.837 -12723070.762 10 0 59179 35100.00000 0 -21982485.165 8381968.285 -9895056.641 10 0 59179 36000.00000 0 -22956121.706 8787967.997 -6875142.124 10 0 59179 36900.00000 0 -23531488.310 9162957.160 -3721912.752 10 0 59179 37800.00000 0 -23707835.691 9448889.710 -496520.098 10 0 59179 38700.00000 0 -23497924.094 9589851.676 2738500.262 10 0 59179 39600.00000 0 -22927377.842 9534638.119 5920436.606 10 0 59179 40500.00000 0 -22033520.468 9239139.990 8987611.551 10 0 59179 41400.00000 0 -20863739.710 8668440.123 11880572.047 10 0 59179 42300.00000 0 -19473451.121 7798529.844 14543236.009 10 0 59179 43200.00000 0 -17923745.652 6617573.416 16923973.857 10 0 59179 44100.00000 0 -16278819.470 5126666.386 18976604.513 10 0 59179 45000.00000 0 -14603293.264 3340054.930 20661287.014 10 0 59179 45900.00000 0 -12959532.633 1284805.588 21945291.052 10 0 59179 46800.00000 0 -11405080.981 -1000062.521 22803631.965 10 0 59179 47700.00000 0 -9990311.678 -3464948.611 23219558.127 10 0 59179 48600.00000 0 -8756397.069 -6051489.125 23184881.400 10 0 59179 49500.00000 0 -7733678.793 -8694750.870 22700144.038 10 0 59179 50400.00000 0 -6940507.422 -11325708.886 21774618.270 10 0 59179 51300.00000 0 -6382599.910 -13873907.545 20426137.838 10 0 59179 52200.00000 0 -6052941.918 -16270195.398 18680763.722 10 0 59179 53100.00000 0 -5932239.400 -18449420.601 16572289.425 10 0 59179 54000.00000 0 -5989900.764 -20352974.994 14141594.303 10 0 59179 54900.00000 0 -6185508.497 -21931080.637 11435856.426 10 0 59179 55800.00000 0 -6470718.355 -23144722.806 8507639.573 10 0 59179 56700.00000 0 -6791505.702 -23967148.011 5413871.610 10 0 59179 57600.00000 0 -7090663.618 -24384863.594 2214734.081 10 0 59179 58500.00000 0 -7310446.197 -24398096.322 -1027514.952 10 0 59179 59400.00000 0 -7395244.001 -24020690.379 -4249761.178 10 0 59179 60300.00000 0 -7294176.915 -23279448.984 -7389272.669 10 0 59179 61200.00000 0 -6963493.073 -22212947.613 -10384931.450 10 0 59179 62100.00000 0 -6368670.712 -20869869.479 -13178432.860 10 0 59179 63000.00000 0 -5486132.533 -19306934.195 -15715428.263 10 0 59179 63900.00000 0 -4304498.874 -17586507.900 -17946587.912 10 0 59179 64800.00000 0 -2825325.720 -15773996.415 -19828562.836 10 0 59179 65700.00000 0 -1063295.635 -13935131.873 -21324826.856 10 0 59179 66600.00000 0 954146.921 -12133267.412 -22406382.556 10 0 59179 67500.00000 0 3187701.034 -10426793.623 -23052318.045 10 0 59179 68400.00000 0 5587617.875 -8866784.789 -23250204.490 10 0 59179 69300.00000 0 8095553.622 -7494972.830 -22996327.554 10 0 59179 70200.00000 0 10646789.693 -6342132.644 -22295749.239 10 0 59179 71100.00000 0 13172728.064 -5426944.931 -21162199.735 10 0 59179 72000.00000 0 15603558.079 -4755382.464 -19617802.106 10 0 59179 72900.00000 0 17870984.323 -4320643.710 -17692635.668 10 0 59179 73800.00000 0 19910902.693 -4103634.766 -15424146.800 10 0 59179 74700.00000 0 21665913.955 -4073977.854 -12856418.817 10 0 59179 75600.00000 0 23087570.994 -4191502.526 -10039314.985 10 0 59179 76500.00000 0 24138266.995 -4408155.793 -7027511.187 10 0 59179 77400.00000 0 24792686.637 -4670249.913 -3879436.880 10 0 59179 78300.00000 0 25038760.637 -4920952.568 -656144.646 10 0 59179 79200.00000 0 24878084.562 -5102914.090 2579869.971 10 0 59179 80100.00000 0 24325785.064 -5160920.748 5765875.554 10 0 59179 81000.00000 0 23409839.748 -5044462.063 8840115.727 10 0 59179 81900.00000 0 22169879.462 -4710103.777 11743000.681 10 0 59179 82800.00000 0 20655523.350 -4123566.268 14418256.477 10 0 59179 83700.00000 0 18924316.281 -3261420.514 16814010.291 10 0 59179 84600.00000 0 17039354.645 -2112329.649 18883791.107 10 0 59179 85500.00000 0 15066699.349 -677783.079 20587426.875 10 0 59180 0.00000 0 13072683.441 1027708.786 21891821.362 10 0 59180 900.00000 0 11121226.137 2976969.332 22771596.153 10 0 59180 1800.00000 0 9271264.231 5131045.760 23209585.422 10 0 59180 2700.00000 0 7574408.241 7440600.956 23197174.273 10 0 59180 3600.00000 0 6072919.168 9847749.503 22734473.758 10 0 59180 4500.00000 0 4798090.938 12288264.173 21830328.686 10 0 59180 5400.00000 0 3769105.201 14694062.349 20502157.370 10 0 59180 6300.00000 0 2992406.404 16995870.328 18775625.404 10 0 59180 7200.00000 0 2461623.278 19125955.328 16684158.694 10 0 59180 8100.00000 0 2158040.098 21020811.799 14268304.058 10 0 59180 9000.00000 0 2051597.925 22623689.926 11574948.742 10 0 59180 9900.00000 0 2102383.693 23886860.169 8656413.297 10 0 59180 10800.00000 0 2262544.072 24773518.408 5569434.926 10 0 59180 11700.00000 0 2478542.770 25259250.932 2374061.027 10 0 59180 12600.00000 0 2693665.027 25332996.920 -867525.153 10 0 59180 13500.00000 0 2850662.193 24997467.224 -4092223.169 10 0 59180 14400.00000 0 2894423.023 24269001.373 -7237253.648 10 0 59180 15300.00000 0 2774557.016 23176868.680 -10241390.763 10 0 59180 16200.00000 0 2447778.861 21762043.095 -13046163.762 10 0 59180 17100.00000 0 1879991.474 20075503.866 -15597003.035 10 0 59180 18000.00000 0 1047978.243 18176134.315 -17844307.499 10 0 59180 18900.00000 0 -59368.146 16128307.884 -19744411.983 10 0 59180 19800.00000 0 -1440333.041 13999263.619 -21260435.643 10 0 59180 20700.00000 0 -3080213.906 11856381.895 -22362995.047 10 0 59180 21600.00000 0 -4951708.552 9764474.774 -23030768.619 10 0 59180 22500.00000 0 -7015841.539 7783204.322 -23250902.237 10 0 59180 23400.00000 0 -9223390.074 5964736.364 -23019248.993 10 0 59180 24300.00000 0 -11516749.970 4351726.679 -22340439.411 10 0 59180 25200.00000 0 -13832163.980 2975722.401 -21227781.608 10 0 59180 26100.00000 0 -16102219.773 1856043.739 -19702994.077 10 0 59180 27000.00000 0 -18258513.794 999190.864 -17795776.804 10 0 59180 27900.00000 0 -20234370.510 398798.781 -15543229.337 10 0 59180 28800.00000 0 -21967504.173 36140.215 -12989127.266 10 0 59180 29700.00000 0 -23402512.813 -118846.347 -10183071.128 10 0 59180 30600.00000 0 -24493101.072 -106048.137 -7179524.073 10 0 59180 31500.00000 0 -25203939.721 26746.282 -4036756.863 10 0 59180 32400.00000 0 -25512084.863 226105.336 -815720.424 10 0 59180 33300.00000 0 -25407898.069 435450.914 2421132.417 10 0 59180 34200.00000 0 -24895429.432 597687.372 5611053.272 10 0 59180 35100.00000 0 -23992247.936 657851.948 8692209.486 10 0 59180 36000.00000 0 -22728726.374 565674.672 11604877.180 10 0 59180 36900.00000 0 -21146810.843 277939.720 14292593.167 10 0 59180 37800.00000 0 -19298326.062 -239451.476 16703243.849 10 0 59180 38700.00000 0 -17242886.961 -1009802.670 18790070.507 10 0 59180 39600.00000 0 -15045503.252 -2044401.863 20512571.965 10 0 59180 40500.00000 0 -12773976.184 -3341809.271 21837287.691 10 0 59180 41400.00000 0 -10496195.171 -4887685.266 22738446.666 10 0 59180 42300.00000 0 -8277446.130 -6655167.032 23198469.679 10 0 59180 43200.00000 0 -6177842.691 -8605779.973 23208315.496 10 0 59180 44100.00000 0 -4249986.481 -10690847.727 22767663.988 10 0 59180 45000.00000 0 -2536953.311 -12853343.835 21884932.209 10 0 59180 45900.00000 0 -1070688.654 -15030109.590 20577122.379 10 0 59180 46800.00000 0 129120.963 -17154347.113 18869503.730 10 0 59180 47700.00000 0 1055653.681 -19158284.684 16795133.281 10 0 59180 48600.00000 0 1715009.897 -20975903.722 14394223.733 10 0 59180 49500.00000 0 2125719.416 -22545613.639 11713369.641 10 0 59180 50400.00000 0 2317718.984 -23812762.269 8804646.199 10 0 59180 51300.00000 0 2330843.545 -24731876.051 5724597.602 10 0 59180 52200.00000 0 2212895.417 -25268535.020 2533134.573 10 0 59180 53100.00000 0 2017373.642 -25400802.749 -707637.116 10 0 59180 54000.00000 0 1800960.689 -25120150.106 -3934633.651 10 0 59180 54900.00000 0 1620874.132 -24431833.081 -7085031.045 10 0 59180 55800.00000 0 1532196.967 -23354708.220 -10097498.491 10 0 59180 56700.00000 0 1585301.174 -21920493.212 -12913402.017 10 0 59180 57600.00000 0 1823475.122 -20172503.854 -15477953.874 10 0 59180 58500.00000 0 2280856.578 -18163920.958 -17741284.338 10 0 59180 59400.00000 0 2980759.837 -15955660.633 -19659414.525 10 0 59180 60300.00000 0 3934468.490 -13613937.939 -21195111.117 10 0 59180 61200.00000 0 5140545.344 -11207626.695 -22318606.480 10 0 59180 62100.00000 0 6584688.888 -8805526.263 -23008170.741 10 0 59180 63000.00000 0 8240142.589 -6473649.581 -23250525.437 10 0 59180 63900.00000 0 10068639.885 -4272645.409 -23041091.585 10 0 59180 64800.00000 0 12021845.353 -2255461.476 -22384068.303 10 0 59180 65700.00000 0 14043231.833 -465344.779 -21292341.322 10 0 59180 66600.00000 0 16070315.132 1065739.097 -19787223.882 10 0 59180 67500.00000 0 18037153.193 2318203.553 -17898035.590 10 0 59180 68400.00000 0 19877005.698 3285411.655 -15661527.729 10 0 59180 69300.00000 0 21525043.393 3973698.033 -13121166.345 10 0 59180 70200.00000 0 22920994.464 4401843.087 -10326287.012 10 0 59180 71100.00000 0 24011617.922 4600023.324 -7331137.522 10 0 59180 72000.00000 0 24752901.041 4608283.380 -4193826.966 10 0 59180 72900.00000 0 25111889.477 4474595.210 -975201.364 10 0 59180 73800.00000 0 25068073.868 4252587.048 2262332.599 10 0 59180 74700.00000 0 24614275.198 3999038.399 5456013.032 10 0 59180 75600.00000 0 23756992.062 3771247.054 8543934.398 10 0 59180 76500.00000 0 22516195.299 3624379.331 11466241.965 10 0 59180 77400.00000 0 20924578.484 3608915.341 14166286.261 10 0 59180 78300.00000 0 19026295.263 3768297.041 16591715.563 10 0 59180 79200.00000 0 16875235.742 4136878.304 18695485.770 10 0 59180 80100.00000 0 14532913.220 4738263.593 20436768.540 10 0 59180 81000.00000 0 12066048.507 5584105.663 21781740.646 10 0 59180 81900.00000 0 9543951.436 6673413.676 22704239.741 10 0 59180 82800.00000 0 7035807.620 7992401.908 23186274.105 10 0 59180 83700.00000 0 4607982.247 9514886.872 23218376.631 10 0 59180 84600.00000 0 2321452.044 11203217.960 22799796.063 10 0 59180 85500.00000 0 229471.480 13009704.437 21938521.302 99